SCP
0 0 0 0 0 0 0 0 0 0 0 0 1 1 1 2 2 2 2 1 1 1 1 1 1 1 1 1 1 1 1 0 0 0 0 0 0 0 0 0 0 0 0 0
0 0 0 0 0 0 0 0 0 0 0 0 1 1 1 2 2 2 2 1 1 1 1 1 1 1 1 1 1 1 1 1 0 0 0 0 0 0 0 0 0 0 0 0
0 0 0 0 0 0 0 0 0 0 0 0 1 1 1 1 2 2 2 2 1 1 1 1 1 1 1 1 1 1 1 1 1 0 0 0 0 0 0 0 0 0 0 0
0 0 0 0 0 0 0 0 0 0 0 1 1 1 1 1 2 2 2 2 2 2 2 2 1 1 1 1 1 1 1 1 1 0 0 0 0 0 0 0 0 0 0 0
0 0 0 0 0 0 0 0 0 0 1 1 1 1 1 1 2 2 2 2 2 2 2 2 2 1 1 1 1 1 1 1 1 0 0 0 0 0 0 0 0 0 0 0
0 0 0 0 0 0 0 0 0 0 1 1 1 1 1 1 2 2 2 2 2 2 2 2 2 1 1 1 1 1 1 1 0 0 0 0 0 0 0 0 0 0 0 0
0 0 0 0 0 0 0 0 0 1 1 1 1 1 1 2 2 3 3 3 2 2 2 2 1 1 1 1 1 1 0 0 0 0 0 0 0 0 0 0 0 0 0 0
0 0 0 0 0 0 0 0 1 1 1 2 2 2 2 2 3 3 3 3 3 2 2 2 1 1 1 1 0 0 0 0 0 0 0 0 0 0 0 0 0 0 0 0
0 0 0 0 0 0 0 1 1 1 2 2 2 3 3 3 3 4 4 4 3 3 2 2 1 1 1 0 0 0 0 0 0 0 0 0 0 0 0 0 0 0 0 0
0 0 0 0 1 1 1 1 2 2 2 3 3 3 3 3 3 4 4 4 3 3 2 1 1 1 1 0 0 0 0 0 0 0 0 0 0 0 0 0 0 0 0 0
0 0 1 1 1 1 1 2 2 2 3 3 3 3 3 3 3 3 3 3 3 2 2 1 1 1 0 0 0 0 0 0 0 0 0 0 0 0 0 0 0 0 0 0
0 0 1 1 1 1 2 2 2 3 3 2 2 3 3 3 2 2 2 2 2 2 2 1 1 1 0 0 0 0 0 0 0 0 0 0 0 0 0 0 0 0 0 0
0 0 1 1 1 1 2 2 2 2 2 2 2 2 2 2 2 2 2 2 2 2 1 1 1 0 0 0 0 0 0 0 0 0 0 0 0 0 0 0 0 0 0 0
1 1 1 1 1 1 2 2 2 2 2 2 2 2 2 2 2 2 2 2 1 1 1 1 1 0 0 0 0 0 0 0 0 0 0 0 0 0 0 0 0 0 0 0
0 1 1 1 1 1 1 2 2 2 2 2 2 2 2 2 2 1 1 1 1 1 1 1 0 0 0 0 0 0 0 0 0 0 0 0 0 0 0 0 0 0 0 0
0 1 1 1 1 1 1 1 1 1 2 2 2 1 1 1 1 1 1 1 1 1 1 1 0 0 0 0 0 0 0 0 0 0 0 0 0 0 0 0 0 0 0 0
1 1 1 1 1 1 1 1 1 1 1 1 1 1 1 1 1 1 1 1 1 1 1 0 0 0 0 0 0 0 0 0 0 0 0 0 0 0 0 0 0 0 0 0
1 0 0 0 0 0 1 0 0 0 1 1 1 1 1 1 1 1 1 1 1 1 1 0 0 0 0 0 0 0 0 0 0 0 0 0 0 0 0 0 0 0 0 0
0 0 0 0 0 0 0 0 0 0 0 0 0 0 0 0 0 0 0 0 0 0 0 0 0 0 0 0 0 0 0 0 0 0 0 0 0 0 0 0 0 0 0 0
0 0 0 0 0 0 0 0 0 0 0 0 0 0 0 0 0 0 0 0 0 0 0 0 0 0 0 0 0 0 0 0 0 0 0 0 0 0 0 0 0 0 0 0
0 0 0 0 0 0 0 0 0 0 0 0 0 0 0 0 0 0 0 0 0 0 0 0 0 0 0 0 0 0 0 0 0 0 0 0 0 0 0 0 0 0 0 0
0 0 0 0 0 0 0 0 0 0 0 0 0 0 0 0 0 0 0 0 0 0 0 0 0 0 0 0 0 0 0 0 0 0 0 0 0 0 0 0 0 0 0 0
0 0 0 0 0 0 0 0 0 0 0 0 0 0 0 0 0 0 0 0 0 0 0 0 0 0 0 0 0 0 0 0 0 0 0 0 0 0 0 0 0 0 0 0
0 0 0 0 0 0 0 0 0 0 0 0 0 0 0 0 0 0 0 0 0 0 0 0 0 0 0 0 0 0 0 0 0 0 0 0 0 0 0 0 0 0 0 0
0 0 0 0 0 0 0 0 0 0 0 0 0 0 0 0 0 0 0 0 0 0 0 0 0 0 0 0 0 0 0 0 0 0 0 0 0 0 0 0 0 0 0 0
0 0 0 0 0 0 0 0 0 0 0 0 0 0 0 0 0 0 0 0 0 0 0 0 0 0 0 0 0 0 0 0 0 0 0 0 0 0 0 0 0 0 0 0
0 0 0 0 0 0 0 0 0 0 0 0 0 0 0 0 0 0 0 0 0 0 0 0 0 0 0 0 0 0 0 0 0 0 0 0 0 0 0 0 0 0 0 0
Wind_Speed
5 5 2 3 5 6 6 8 8 8 7 9 8 8 8 9 10 12 12 11 10 10 8 8 8 7 7 7 6 7 6 5 5 4 4 4 4 4 4 4 5 4 5 4
1 0 1 2 4 6 6 6 7 6 5 7 5 5 6 8 12 13 12 12 11 10 10 9 8 8 7 7 7 7 7 6 5 5 5 4 4 4 5 5 5 5 5 4
1 2 4 3 4 4 3 4 8 8 7 4 6 8 10 11 11 12 12 12 12 11 9 9 8 8 8 7 7 7 7 6 6 6 5 5 5 6 5 5 5 5 5 5
2 3 3 9 4 3 3 2 4 5 6 9 10 9 8 9 12 12 12 11 10 9 8 7 7 8 8 8 8 8 7 6 6 6 6 5 5 5 4 4 4 4 4 4
4 2 4 6 3 3 3 3 2 6 6 5 7 7 2 3 8 11 12 11 10 9 9 9 8 9 9 8 7 8 7 7 6 7 7 6 6 5 4 4 4 3 3 4
4 3 5 7 6 2 6 2 4 5 8 8 8 5 5 5 7 8 8 9 10 10 10 10 10 9 9 8 8 8 7 7 7 7 7 7 6 5 4 4 4 4 4 3
4 3 6 7 5 2 5 7 5 4 7 8 7 7 7 8 8 8 8 9 10 11 10 9 10 10 9 8 7 6 7 7 7 6 7 6 5 4 4 4 4 4 4 3
4 3 7 6 3 2 6 5 3 3 5 6 6 6 7 8 9 10 10 10 10 10 9 8 9 10 9 8 6 7 8 8 7 6 6 6 5 4 4 5 5 4 3 2
7 8 7 3 2 3 3 3 2 4 5 8 9 8 8 7 8 9 11 10 9 10 9 8 8 9 9 7 8 8 8 8 7 6 5 5 6 6 4 4 3 3 3 2
2 3 3 2 0 1 1 3 4 6 7 9 9 10 9 8 7 7 9 10 9 10 10 8 7 7 7 7 8 9 8 7 6 6 5 4 4 4 4 4 4 3 3 3
0 2 4 5 3 2 3 5 7 7 6 8 10 9 9 8 7 6 6 7 9 10 10 9 8 8 7 8 9 9 8 7 6 5 5 4 3 2 3 3 4 5 4 4
3 3 2 3 3 3 5 6 7 8 6 6 8 8 7 7 6 6 7 6 8 9 9 8 8 8 7 7 8 9 7 6 5 5 4 4 4 2 4 1 2 4 5 5
3 2 2 2 3 3 6 6 6 7 7 7 5 6 6 5 5 6 7 6 8 8 8 8 8 7 7 7 8 8 8 7 5 5 5 5 5 5 3 2 3 2 3 5
1 2 2 1 1 2 5 6 7 6 6 6 6 6 5 5 6 7 7 6 7 8 8 7 7 6 6 7 7 7 6 7 6 5 5 5 5 4 4 4 3 0 0 2
1 1 2 0 1 4 5 7 8 5 6 6 5 5 6 6 6 6 6 7 8 8 7 6 6 5 5 6 6 6 6 5 5 5 5 5 4 4 4 4 3 3 1 0
1 2 3 3 2 2 4 6 5 4 4 5 5 5 5 5 5 6 6 7 8 8 7 6 6 5 5 6 6 5 4 6 6 5 5 4 4 4 4 4 4 3 3 3
3 2 2 3 2 1 3 5 4 3 5 6 5 5 6 6 6 5 4 5 6 6 6 5 4 4 4 5 6 4 4 5 7 5 4 5 5 5 5 4 4 4 3 4
5 5 4 4 4 4 3 3 4 4 4 5 5 6 7 7 6 5 4 5 5 4 3 3 3 3 3 4 4 4 4 4 4 4 4 4 4 4 5 5 5 5 3 3
5 5 5 5 4 5 4 3 3 4 5 5 6 6 5 5 5 5 5 5 5 4 2 2 4 4 3 3 4 3 4 4 4 3 3 4 4 3 4 5 5 5 4 4
4 5 6 6 5 5 5 3 4 4 5 6 6 6 5 4 5 5 5 4 2 2 3 3 4 3 3 3 4 3 4 4 4 4 3 3 4 3 4 4 4 4 4 4
5 5 6 6 5 5 4 4 5 4 4 5 6 5 5 4 4 4 4 3 1 2 3 4 3 2 2 2 3 3 3 4 4 4 4 4 4 4 4 4 4 5 4 4
4 5 5 5 5 4 3 4 4 4 3 3 4 4 4 3 3 3 2 3 3 4 3 3 2 3 3 4 3 3 3 4 4 4 4 4 4 4 4 4 4 4 4 5
4 4 4 4 4 3 3 2 3 3 3 3 3 3 3 3 3 4 2 2 3 4 3 2 3 4 5 3 2 3 3 4 4 4 3 3 3 4 4 4 4 4 5 5
3 2 2 3 3 4 3 2 2 2 2 2 2 2 3 3 1 1 2 4 4 5 3 4 5 5 4 2 2 3 3 3 3 3 3 3 3 3 3 4 4 4 5 5
3 3 3 4 4 3 3 2 2 2 2 1 1 1 1 2 3 3 3 4 5 5 3 4 6 5 3 2 3 3 3 3 3 4 3 3 3 3 3 4 4 4 4 4
2 2 2 2 3 3 2 2 1 1 1 1 1 1 1 2 3 3 2 3 4 4 3 3 3 3 2 3 3 3 2 3 3 3 3 3 3 3 3 3 4 4 3 3
2 1 1 1 1 2 3 3 2 2 1 2 2 1 2 2 2 2 3 3 2 2 2 2 3 3 2 2 2 2 2 2 3 3 3 3 3 3 3 3 3 3 3 3
Wind_Direction
200 205 177 217 215 190 168 175 173 205 202 215 196 173 162 148 141 139 143 156 162 161 160 158 156 154 152 149 146 136 133 136 138 132 123 120 114 107 99 94 91 81 78 67
353 312 79 292 247 210 193 175 169 168 219 224 189 144 143 150 147 149 155 157 158 158 159 160 157 155 151 147 145 138 140 143 137 127 119 117 118 112 101 90 81 76 70 65
265 334 55 296 247 200 189 178 164 185 214 175 141 157 168 167 159 160 162 160 163 162 157 158 158 153 149 146 140 136 138 138 134 128 124 123 119 109 106 99 89 82 73 71
105 69 211 240 245 176 164 216 184 172 175 166 171 174 175 169 162 161 159 158 155 149 148 149 146 142 139 140 141 142 142 142 138 134 130 125 119 117 114 108 103 97 87 80
111 144 277 292 282 160 143 279 218 162 164 155 136 102 76 191 165 164 163 158 153 149 143 140 138 136 135 143 146 146 148 148 146 141 139 137 134 133 128 119 110 103 97 93
118 146 221 255 273 207 111 285 277 158 160 154 127 135 212 191 159 152 153 150 145 141 136 139 144 141 140 147 150 155 157 153 147 144 143 145 146 142 133 127 124 114 97 91
139 184 255 264 289 66 134 224 259 178 165 159 163 178 181 162 151 150 147 145 142 140 143 147 145 140 142 146 156 157 145 140 139 141 143 145 140 135 132 127 121 115 108 94
145 174 252 293 7 159 209 218 201 155 148 137 138 134 134 143 143 139 137 139 140 139 139 142 144 141 141 150 152 138 134 137 138 138 143 139 133 130 128 126 124 122 114 92
179 205 232 266 199 230 192 158 147 138 132 128 129 131 128 129 132 134 137 139 138 138 136 141 147 146 147 152 145 138 136 142 142 139 135 139 141 139 133 130 131 135 132 130
184 249 255 282 32 17 104 138 138 129 126 125 128 130 127 126 126 133 136 141 140 140 142 147 149 143 145 149 145 140 144 148 144 139 134 131 135 144 146 153 154 156 156 156
183 299 350 346 3 36 59 89 92 93 102 120 122 126 126 125 129 136 140 141 147 152 153 156 154 148 149 149 147 146 148 149 144 141 141 133 124 129 160 182 181 174 179 173
216 248 204 271 310 61 78 83 99 95 88 102 118 124 124 128 135 137 137 137 140 145 148 148 147 145 148 153 151 150 150 154 153 150 149 148 141 107 49 101 172 180 179 171
201 242 207 248 327 54 88 92 89 96 114 112 105 114 123 132 129 124 126 135 148 148 147 146 148 150 158 160 162 163 162 163 158 160 162 165 163 156 147 43 55 107 164 169
150 89 53 343 326 44 88 91 89 89 99 104 105 108 114 121 126 129 136 139 135 132 136 140 143 153 160 156 158 162 164 167 163 165 171 173 173 171 165 162 159 162 61 168
345 136 153 84 51 69 81 89 85 83 93 89 100 112 117 127 134 137 135 129 127 127 132 138 144 156 159 155 158 162 162 167 166 166 169 171 169 168 171 173 170 168 155 140
88 43 62 78 87 93 97 92 96 110 118 113 119 126 127 125 124 124 125 132 137 143 149 151 161 169 163 158 163 166 169 168 162 163 166 167 169 171 174 175 176 177 183 183
121 101 108 115 133 123 123 127 134 139 135 128 128 126 119 113 106 106 116 126 136 146 147 156 169 165 164 158 158 166 164 167 164 161 170 174 174 177 177 175 180 186 194 182
170 168 153 149 142 137 123 111 116 129 131 122 123 125 125 126 127 127 124 116 111 111 124 151 154 149 154 156 156 155 157 161 164 167 168 169 173 178 177 179 182 180 179 173
146 133 133 130 127 122 117 132 146 134 123 125 124 126 130 130 128 125 119 117 124 137 165 152 144 141 142 147 142 144 151 157 159 160 160 162 162 167 175 179 181 183 178 166
107 118 122 116 112 116 117 121 116 113 118 118 116 113 113 121 127 127 122 121 151 175 163 140 134 138 150 151 137 143 153 158 157 157 157 157 159 162 166 168 171 174 175 173
109 106 108 110 103 101 105 107 105 107 110 115 122 127 130 133 133 133 133 138 189 147 134 133 134 147 150 143 139 146 155 158 158 162 162 163 163 163 162 163 166 167 169 169
107 104 104 99 93 93 98 104 111 114 109 111 118 124 126 128 129 128 146 169 175 153 141 144 147 153 152 149 152 165 166 163 162 160 160 164 168 170 169 167 167 167 167 170
115 117 114 110 114 120 98 103 124 121 118 124 130 137 146 159 158 152 169 195 163 152 146 154 158 151 148 148 153 160 159 158 159 158 158 158 164 168 170 171 174 171 168 169
113 116 122 127 127 120 124 135 116 114 119 123 140 153 155 148 141 159 163 163 162 157 155 159 155 151 147 148 153 155 157 160 159 159 162 164 163 167 167 167 172 174 174 174
114 121 125 130 131 139 145 128 101 102 105 102 111 137 150 152 158 165 158 160 158 153 153 165 165 161 157 155 162 164 161 163 166 166 164 167 172 172 173 171 171 174 176 179
126 135 142 153 161 159 148 137 143 151 132 123 125 123 111 122 138 140 141 148 152 151 157 169 175 174 169 166 166 163 157 156 161 164 162 163 167 165 166 169 173 174 176 180
99 108 111 110 135 155 147 144 143 147 146 148 152 143 130 127 129 132 133 136 145 151 154 164 171 173 170 164 161 164 164 160 157 154 153 157 162 162 160 159 161 160 162 165